Temp
5 5 5 5 5 5 5 5 5 5 5 5 6 6 6 6 6 6 6 6 6 6 6 6 6 6 6 5 5 5 5 5 5 5 5 5 5 5 5 5 5 5 5 5 5 4 4 4 3 3 3 2 2 2 2 2 2 2 2 2 2 2 2
5 5 4 4 5 5 5 5 5 5 5 5 5 6 6 6 6 6 6 6 6 6 6 6 5 5 5 5 5 5 5 5 5 5 5 5 4 4 5 5 5 5 5 4 4 4 4 3 3 3 2 2 2 2 2 2 2 2 2 2 2 2 2
5 4 4 4 5 5 5 5 5 5 5 5 5 5 6 6 6 6 6 6 6 5 5 5 5 5 5 5 5 5 5 5 5 5 4 4 4 4 4 4 4 4 4 4 4 3 3 3 2 2 2 2 2 2 2 2 2 2 1 1 1 1 1
5 4 4 4 5 5 5 5 5 5 5 5 5 5 5 6 6 5 5 5 5 5 5 5 5 5 5 5 5 5 4 4 4 4 4 4 4 4 4 4 4 4 4 3 3 3 3 2 2 2 2 2 2 1 1 1 1 1 1 1 1 1 1
4 4 4 4 5 5 5 5 5 5 5 5 5 5 5 5 5 5 5 5 5 5 5 5 4 4 4 4 4 4 4 4 4 4 4 4 4 4 4 4 4 3 3 3 3 3 2 2 2 2 2 1 1 1 1 1 1 0 0 0 0 0 0
4 4 4 5 5 5 5 5 5 5 5 5 5 5 5 5 5 5 5 5 4 4 4 4 4 4 4 4 4 4 4 4 4 4 4 4 4 4 4 3 3 3 3 3 2 2 2 2 2 1 1 1 1 1 0 0 0 0 -0 -0 -0 -0 -0
4 4 4 5 5 5 5 5 5 5 5 5 5 5 5 5 5 5 4 4 4 4 4 4 4 4 4 4 4 4 4 4 4 4 4 4 4 3 3 3 3 3 2 2 2 2 2 1 1 1 1 1 1 0 0 0 0 -0 -0 -1 -1 -0 -0
4 4 4 4 5 5 5 5 5 5 5 5 5 5 5 5 5 4 4 4 4 4 4 4 3 3 3 3 3 3 3 3 3 3 3 3 3 3 3 3 3 2 2 2 2 1 1 1 1 1 1 1 0 0 0 -0 -0 -0 -0 -0 -1 -1 -0
4 4 4 4 4 5 5 5 5 5 5 5 5 5 5 5 5 4 4 4 4 3 3 3 3 3 3 3 3 3 3 3 3 3 3 3 3 3 3 3 2 2 2 2 1 1 1 1 1 1 0 0 0 0 0 -0 -0 -0 -0 -0 -1 -1 -1
4 4 4 4 4 5 5 5 5 5 5 5 5 5 5 5 4 4 4 3 3 3 3 3 3 3 3 3 3 3 3 3 3 3 3 3 3 2 2 2 2 2 1 1 1 1 1 0 0 0 0 0 -0 -0 0 -0 -1 -1 -1 -1 -1 -1 -1
4 4 4 4 4 4 5 5 5 5 5 5 5 5 5 5 4 4 3 3 3 3 3 3 3 3 3 3 3 3 3 3 3 3 3 2 2 2 2 2 2 1 1 1 1 0 0 0 -0 -0 -0 -0 -0 -0 -0 -0 -1 -1 -1 -1 -1 -1 -1
4 4 4 4 4 4 5 5 5 5 5 5 5 5 5 5 4 3 3 3 3 3 3 3 3 3 3 3 3 3 3 3 3 2 2 2 2 2 2 1 1 1 1 0 0 0 -0 -0 -0 -0 -1 -1 -1 -1 -1 -1 -1 -2 -1 -1 -2 -2 -2
4 4 4 4 4 4 5 5 5 5 5 6 6 5 5 4 4 3 3 3 3 2 2 3 3 3 3 2 2 2 2 2 2 2 2 2 2 2 1 1 1 1 0 0 -0 -0 -0 -1 -1 -1 -1 -1 -1 -1 -1 -1 -1 -2 -2 -2 -2 -2 -2
4 4 4 4 4 5 5 5 5 5 6 6 5 5 5 4 3 3 3 3 2 2 2 2 2 2 2 2 2 2 2 2 2 2 2 2 1 1 1 1 0 0 0 -0 -0 -1 -1 -1 -1 -1 -1 -1 -1 -1 -1 -1 -1 -1 -2 -2 -2 -2 -2
4 4 4 4 4 5 5 5 5 5 5 5 5 5 4 4 3 3 3 2 2 2 2 2 2 2 2 2 2 2 2 2 2 2 1 1 1 1 0 0 0 0 -0 -1 -1 -1 -1 -1 -1 -1 -1 -1 -2 -2 -2 -1 -1 -1 -1 -2 -2 -2 -2
4 4 4 4 4 5 5 5 5 5 5 5 5 4 4 3 3 3 2 2 2 2 2 2 2 2 2 2 2 2 2 2 1 1 1 1 1 0 0 0 -0 -0 -1 -1 -1 -1 -1 -1 -1 -1 -1 -2 -2 -2 -2 -2 -2 -2 -1 -2 -2 -2 -2
4 4 4 4 4 5 5 5 5 5 5 5 4 4 4 3 3 3 2 2 2 2 2 2 2 2 2 2 1 1 1 1 1 1 1 0 0 0 0 -0 -0 -1 -1 -1 -1 -1 -1 -1 -1 -1 -2 -2 -2 -2 -2 -2 -2 -2 -2 -2 -2 -3 -3
4 4 4 4 4 5 5 5 4 5 5 4 4 4 3 3 3 2 2 2 2 2 2 2 2 2 1 1 1 1 1 1 1 0 0 0 0 -0 -0 -0 -1 -1 -1 -1 -1 -1 -1 -1 -1 -2 -2 -2 -2 -2 -2 -2 -2 -2 -2 -2 -2 -3 -3
4 4 4 4 4 4 4 4 4 4 4 4 4 4 3 3 2 2 2 2 2 2 2 2 1 1 1 1 1 1 1 1 0 0 0 -0 -0 -0 -1 -1 -1 -1 -1 -1 -1 -1 -1 -1 -1 -2 -2 -2 -2 -2 -2 -2 -2 -3 -3 -3 -3 -3 -3
4 4 4 4 4 4 4 4 4 4 4 4 4 3 3 3 2 2 2 2 2 2 1 1 1 1 1 1 1 1 0 0 0 0 -0 -0 -0 -1 -1 -1 -1 -1 -1 -1 -1 -1 -1 -2 -2 -2 -2 -2 -2 -2 -2 -2 -3 -3 -3 -3 -3 -3 -3
4 4 4 4 4 4 4 4 4 4 4 4 3 3 3 2 2 2 2 2 1 1 1 1 1 1 1 1 1 0 0 0 -0 -0 -0 -0 -1 -1 -1 -1 -1 -1 -1 -1 -1 -2 -2 -2 -2 -2 -2 -2 -2 -2 -3 -3 -3 -3 -3 -3 -3 -3 -3
4 4 4 4 4 4 4 3 3 3 3 3 3 3 2 2 2 2 2 1 1 1 1 1 1 1 1 1 0 0 -0 -0 -0 -0 -1 -1 -1 -1 -1 -1 -1 -2 -2 -2 -2 -2 -2 -2 -2 -2 -2 -2 -2 -3 -3 -3 -3 -3 -3 -3 -3 -3 -4
4 4 4 4 4 4 3 3 3 3 3 3 3 2 2 2 2 2 1 1 1 1 1 1 1 1 0 0 -0 -0 -0 -0 -0 -1 -1 -1 -1 -1 -1 -1 -2 -2 -2 -2 -2 -2 -2 -2 -3 -3 -3 -3 -3 -3 -3 -3 -3 -3 -3 -3 -4 -4 -4
4 4 4 4 4 3 3 3 3 3 3 2 2 2 2 1 1 1 1 1 1 1 1 0 1 0 0 -0 -0 -0 -0 -0 -1 -1 -1 -1 -1 -2 -2 -2 -2 -2 -2 -2 -2 -2 -3 -3 -3 -3 -3 -3 -3 -3 -3 -3 -3 -4 -4 -4 -4 -4 -4
4 4 4 3 3 3 3 3 2 2 2 2 2 2 2 1 1 1 1 1 1 0 0 0 0 0 -0 -0 -0 -0 -1 -1 -1 -1 -1 -2 -2 -2 -2 -2 -2 -2 -2 -2 -3 -3 -3 -3 -4 -4 -4 -4 -4 -4 -4 -4 -4 -4 -4 -4 -4 -4 -5
4 4 3 3 3 3 2 2 2 2 2 2 2 2 1 1 1 1 1 1 0 0 0 0 0 -0 -0 -0 -0 -1 -1 -1 -1 -1 -2 -2 -2 -2 -2 -2 -2 -2 -2 -3 -3 -3 -3 -4 -4 -4 -4 -4 -4 -4 -4 -4 -4 -4 -4 -4 -5 -5 -5
3 3 3 3 2 2 2 2 2 2 2 2 1 1 1 1 1 1 1 0 0 0 0 -0 -0 -0 -0 -1 -1 -1 -1 -1 -1 -2 -2 -2 -2 -2 -2 -2 -2 -2 -3 -3 -3 -3 -4 -4 -4 -4 -4 -4 -5 -5 -5 -5 -5 -5 -5 -5 -5 -5 -5
3 3 2 2 2 2 2 2 2 2 1 1 1 1 1 1 1 1 0 0 -0 -0 -0 -0 -0 -1 -1 -1 -1 -1 -1 -1 -2 -2 -2 -2 -2 -2 -2 -2 -2 -2 -3 -3 -3 -4 -4 -4 -4 -4 -4 -4 -5 -5 -5 -5 -5 -5 -5 -5 -5 -5 -6
2 2 2 2 2 2 1 1 1 1 1 1 1 1 1 1 1 0 0 -0 -0 -0 -0 -0 -1 -1 -1 -1 -1 -1 -1 -2 -2 -2 -2 -2 -2 -2 -2 -2 -2 -3 -3 -3 -3 -4 -4 -4 -4 -4 -4 -5 -5 -5 -5 -5 -5 -5 -5 -5 -5 -6 -6
2 2 2 2 2 2 1 1 1 1 1 1 1 1 1 1 0 0 -0 -0 -0 -0 -0 -1 -1 -1 -1 -1 -1 -1 -2 -2 -2 -2 -2 -2 -2 -2 -2 -2 -3 -3 -3 -3 -3 -4 -4 -4 -4 -4 -4 -4 -5 -5 -5 -5 -5 -5 -5 -5 -6 -6 -6
2 2 2 1 2 1 1 1 1 1 1 1 1 1 1 0 0 -0 -0 -1 -1 -1 -1 -1 -1 -1 -1 -1 -2 -2 -2 -2 -2 -2 -2 -2 -2 -2 -2 -3 -3 -3 -3 -3 -3 -4 -4 -4 -4 -4 -4 -4 -4 -5 -5 -5 -5 -5 -5 -5 -6 -6 -6
2 2 1 1 1 1 1 1 0 0 0 0 0 0 0 0 -0 -0 -1 -1 -1 -1 -1 -1 -1 -1 -1 -2 -2 -2 -2 -2 -2 -2 -2 -2 -2 -2 -3 -3 -3 -3 -3 -3 -4 -4 -4 -4 -4 -4 -4 -4 -4 -4 -4 -5 -5 -5 -5 -5 -5 -5 -5
1 1 1 1 1 1 1 0 0 0 0 0 0 0 0 -0 -0 -1 -1 -1 -1 -1 -1 -1 -1 -2 -2 -2 -2 -2 -2 -2 -2 -2 -2 -2 -2 -3 -3 -3 -3 -3 -3 -4 -4 -4 -4 -4 -4 -4 -4 -4 -4 -4 -4 -5 -5 -5 -5 -5 -5 -5 -5
1 1 1 1 1 1 1 0 -0 -0 -0 -0 -0 -0 -0 -0 -1 -1 -1 -1 -1 -1 -1 -1 -2 -2 -2 -2 -2 -2 -2 -2 -2 -2 -2 -2 -2 -3 -3 -3 -3 -3 -3 -4 -4 -4 -4 -4 -4 -4 -4 -4 -4 -4 -5 -5 -5 -5 -5 -5 -6 -6 -5
1 1 0 1 1 1 1 -0 -0 -0 -0 -0 -0 -0 -1 -1 -1 -1 -1 -1 -1 -1 -1 -2 -2 -2 -2 -2 -2 -3 -3 -3 -3 -3 -2 -2 -3 -3 -3 -3 -3 -3 -3 -4 -4 -4 -4 -4 -4 -4 -4 -4 -4 -5 -5 -5 -5 -5 -5 -6 -6 -6 -5
1 1 0 0 1 1 0 -0 -0 -1 -0 -0 -0 -0 -1 -1 -1 -1 -1 -1 -1 -2 -2 -2 -2 -2 -2 -2 -3 -3 -3 -3 -3 -3 -3 -2 -3 -3 -3 -3 -3 -3 -3 -4 -4 -4 -4 -4 -4 -4 -4 -4 -4 -5 -5 -5 -5 -5 -5 -5 -6 -6 -6
1 1 0 0 0 1 0 -0 -1 -1 -0 -0 -0 -1 -1 -1 -1 -1 -1 -1 -2 -2 -2 -2 -2 -2 -3 -3 -3 -3 -3 -3 -3 -3 -3 -3 -3 -3 -3 -3 -3 -3 -4 -4 -4 -4 -4 -4 -4 -4 -4 -4 -5 -5 -5 -5 -5 -5 -5 -5 -6 -6 -6
Height
3160 3161 3162 3163 3164 3165 3166 3167 3167 3168 3168 3168 3168 3169 3169 3169 3170 3170 3170 3170 3170 3170 3169 3169 3169 3168 3167 3166 3165 3165 3164 3163 3162 3162 3161 3160 3160 3159 3157 3156 3155 3154 3152 3151 3149 3148 3146 3145 3143 3140 3136 3132 3130 3129 3128 3125 3123 3121 3119 3117 3114 3112 3110
3158 3160 3162 3163 3164 3164 3165 3166 3167 3167 3167 3167 3168 3168 3168 3169 3169 3169 3169 3169 3169 3169 3168 3168 3167 3166 3165 3165 3164 3163 3162 3161 3161 3160 3159 3158 3157 3156 3155 3154 3153 3152 3150 3149 3147 3145 3144 3142 3141 3140 3138 3134 3131 3128 3126 3124 3121 3119 3117 3115 3113 3110 3107
3158 3159 3161 3162 3163 3163 3164 3165 3166 3166 3167 3167 3167 3168 3168 3168 3168 3168 3168 3168 3168 3167 3167 3166 3166 3165 3164 3163 3162 3161 3160 3160 3159 3158 3157 3156 3156 3155 3153 3152 3151 3149 3148 3146 3145 3143 3142 3140 3138 3137 3136 3134 3131 3128 3125 3123 3120 3117 3114 3112 3110 3107 3105
3157 3158 3160 3161 3162 3163 3164 3164 3165 3166 3166 3166 3167 3167 3167 3167 3167 3167 3167 3167 3166 3166 3165 3164 3164 3163 3162 3161 3161 3160 3159 3158 3157 3156 3155 3155 3154 3153 3152 3151 3149 3148 3146 3145 3143 3141 3140 3138 3136 3135 3133 3131 3128 3126 3123 3121 3118 3115 3112 3110 3107 3104 3102
3156 3158 3160 3160 3161 3162 3163 3164 3164 3165 3165 3166 3166 3166 3166 3166 3166 3165 3165 3165 3164 3164 3163 3163 3162 3161 3161 3160 3159 3158 3157 3156 3155 3154 3154 3153 3152 3151 3150 3149 3147 3146 3144 3143 3141 3139 3138 3136 3134 3132 3131 3129 3127 3124 3121 3118 3116 3113 3110 3107 3105 3102 3099
3156 3157 3159 3160 3160 3161 3162 3163 3163 3164 3164 3164 3164 3164 3164 3164 3164 3164 3163 3163 3163 3162 3162 3161 3160 3160 3159 3158 3157 3156 3155 3154 3153 3153 3152 3151 3150 3149 3148 3147 3145 3144 3142 3140 3139 3137 3135 3134 3132 3131 3129 3127 3125 3123 3120 3117 3114 3111 3108 3105 3102 3099 3096
3155 3156 3157 3158 3159 3160 3161 3161 3162 3163 3163 3163 3163 3163 3163 3162 3162 3162 3162 3161 3161 3160 3160 3159 3159 3158 3157 3156 3155 3154 3153 3152 3152 3151 3150 3149 3148 3147 3146 3144 3143 3141 3140 3138 3137 3135 3133 3132 3130 3129 3127 3125 3123 3121 3118 3114 3111 3109 3107 3103 3100 3097 3094
3154 3155 3156 3157 3158 3158 3159 3160 3161 3161 3162 3162 3161 3161 3161 3161 3160 3160 3160 3160 3159 3159 3158 3157 3157 3156 3155 3154 3153 3152 3151 3150 3150 3149 3148 3147 3146 3145 3143 3142 3140 3139 3138 3136 3135 3133 3131 3129 3127 3125 3123 3122 3120 3119 3117 3114 3110 3106 3104 3102 3099 3095 3092
3153 3154 3155 3156 3156 3157 3158 3158 3159 3160 3160 3160 3160 3159 3159 3158 3158 3158 3158 3158 3158 3157 3157 3156 3155 3154 3153 3152 3152 3151 3150 3149 3148 3147 3146 3145 3144 3143 3141 3140 3138 3137 3135 3134 3133 3131 3128 3126 3124 3122 3119 3117 3115 3114 3114 3112 3109 3105 3102 3098 3096 3094 3090
3151 3152 3153 3154 3155 3156 3156 3157 3158 3158 3158 3158 3158 3157 3157 3156 3156 3156 3156 3157 3156 3156 3155 3154 3153 3153 3152 3151 3150 3149 3148 3147 3147 3146 3145 3143 3142 3140 3139 3138 3136 3135 3134 3132 3130 3128 3126 3123 3121 3119 3116 3114 3111 3109 3108 3107 3105 3102 3099 3095 3091 3089 3087
3150 3151 3152 3153 3154 3155 3155 3156 3156 3156 3156 3156 3155 3155 3154 3154 3154 3154 3155 3155 3154 3154 3153 3153 3152 3151 3151 3150 3149 3148 3147 3146 3145 3144 3143 3142 3140 3139 3137 3136 3135 3133 3132 3130 3128 3126 3123 3121 3119 3116 3114 3111 3109 3106 3103 3102 3101 3097 3094 3092 3088 3084 3082
3149 3150 3151 3152 3153 3153 3154 3154 3154 3154 3154 3153 3153 3153 3153 3153 3153 3153 3153 3153 3153 3152 3152 3151 3151 3150 3149 3149 3148 3147 3146 3145 3144 3143 3142 3140 3139 3138 3136 3135 3133 3132 3130 3128 3126 3124 3122 3120 3117 3115 3112 3109 3107 3104 3101 3099 3098 3095 3091 3088 3086 3082 3077
3148 3149 3150 3151 3152 3152 3152 3152 3152 3152 3151 3151 3151 3151 3151 3151 3151 3151 3151 3151 3151 3151 3151 3150 3149 3149 3148 3147 3146 3145 3144 3144 3143 3142 3140 3139 3138 3136 3135 3134 3132 3130 3129 3127 3125 3123 3121 3118 3116 3114 3111 3108 3105 3102 3100 3097 3095 3094 3091 3086 3083 3079 3075
3146 3147 3149 3150 3150 3150 3150 3150 3150 3150 3149 3149 3149 3149 3149 3149 3149 3150 3150 3150 3150 3150 3149 3149 3148 3148 3147 3146 3145 3144 3143 3142 3142 3140 3139 3138 3136 3135 3134 3133 3131 3129 3127 3126 3124 3122 3120 3117 3115 3113 3110 3107 3104 3101 3098 3095 3093 3091 3089 3086 3081 3077 3073
3145 3146 3147 3148 3149 3149 3148 3148 3148 3147 3147 3147 3147 3148 3148 3148 3148 3148 3148 3148 3149 3148 3148 3148 3147 3146 3146 3145 3144 3143 3142 3141 3140 3139 3138 3136 3135 3134 3133 3132 3130 3128 3127 3125 3123 3121 3119 3117 3114 3112 3109 3106 3104 3100 3097 3094 3091 3088 3086 3083 3079 3075 3071
3144 3145 3146 3147 3147 3147 3146 3146 3146 3145 3145 3145 3146 3146 3146 3146 3147 3147 3147 3147 3147 3147 3147 3146 3146 3145 3145 3144 3143 3142 3141 3140 3139 3138 3136 3135 3134 3133 3132 3131 3129 3127 3126 3124 3122 3120 3118 3116 3113 3111 3108 3106 3103 3100 3096 3093 3089 3085 3082 3079 3076 3072 3068
3143 3144 3144 3145 3145 3144 3144 3144 3144 3143 3144 3144 3144 3145 3145 3145 3145 3145 3146 3146 3146 3146 3145 3145 3145 3144 3144 3143 3142 3141 3140 3139 3138 3136 3135 3134 3133 3132 3131 3130 3128 3127 3125 3123 3121 3119 3116 3114 3112 3110 3107 3105 3102 3099 3096 3092 3088 3084 3080 3076 3073 3069 3065
3141 3142 3142 3142 3142 3142 3142 3142 3142 3142 3142 3142 3143 3143 3143 3144 3144 3144 3144 3144 3144 3144 3144 3144 3144 3143 3143 3142 3141 3140 3139 3138 3136 3135 3135 3133 3132 3131 3130 3129 3127 3126 3124 3122 3120 3118 3115 3113 3111 3109 3106 3104 3101 3097 3094 3091 3087 3083 3079 3074 3070 3067 3063
3139 3140 3140 3140 3140 3140 3140 3140 3140 3140 3141 3141 3141 3142 3142 3142 3143 3143 3143 3143 3143 3143 3143 3143 3143 3142 3142 3141 3139 3138 3137 3136 3135 3135 3134 3133 3132 3131 3130 3128 3127 3125 3123 3121 3119 3117 3115 3112 3110 3107 3105 3102 3099 3096 3092 3089 3086 3082 3077 3073 3068 3065 3061
3137 3137 3138 3138 3138 3138 3138 3138 3138 3138 3139 3140 3140 3140 3140 3141 3141 3141 3142 3142 3142 3142 3142 3142 3141 3141 3140 3139 3138 3137 3136 3135 3135 3134 3133 3132 3131 3130 3129 3127 3126 3124 3122 3120 3118 3116 3114 3111 3109 3106 3103 3100 3097 3094 3090 3087 3084 3080 3076 3071 3067 3063 3059
3135 3135 3136 3136 3136 3136 3136 3136 3136 3137 3138 3138 3138 3138 3139 3140 3140 3140 3140 3140 3140 3141 3141 3141 3140 3140 3139 3138 3137 3136 3135 3134 3134 3133 3132 3131 3130 3129 3128 3127 3125 3123 3121 3118 3116 3114 3112 3110 3107 3104 3101 3098 3095 3092 3088 3085 3081 3078 3074 3070 3065 3061 3056
3133 3134 3134 3134 3134 3134 3134 3134 3135 3135 3136 3136 3136 3137 3137 3138 3138 3138 3139 3139 3139 3139 3139 3139 3139 3139 3138 3137 3136 3135 3134 3134 3133 3132 3131 3130 3129 3128 3127 3126 3124 3122 3119 3117 3115 3113 3111 3108 3105 3102 3099 3096 3092 3090 3086 3083 3079 3076 3072 3068 3063 3058 3054
3131 3132 3132 3132 3132 3132 3132 3132 3133 3133 3134 3135 3135 3135 3136 3136 3137 3137 3137 3137 3138 3138 3138 3138 3138 3137 3136 3136 3135 3134 3133 3133 3132 3132 3131 3130 3129 3128 3126 3125 3123 3121 3119 3117 3114 3112 3110 3107 3103 3100 3097 3094 3091 3087 3084 3081 3078 3074 3070 3066 3061 3055 3050
3129 3130 3130 3130 3130 3130 3130 3130 3131 3131 3132 3133 3133 3134 3134 3134 3135 3135 3135 3136 3136 3136 3137 3136 3136 3136 3135 3134 3134 3133 3132 3132 3131 3131 3130 3129 3128 3127 3126 3124 3122 3120 3118 3116 3114 3111 3109 3106 3103 3100 3097 3094 3090 3086 3083 3079 3076 3073 3069 3065 3060 3054 3048
3126 3127 3127 3127 3127 3127 3128 3128 3129 3129 3130 3131 3131 3132 3132 3133 3133 3134 3134 3134 3135 3135 3135 3135 3134 3134 3134 3133 3132 3132 3131 3131 3131 3130 3129 3128 3127 3126 3125 3123 3121 3120 3118 3116 3113 3111 3108 3105 3102 3100 3097 3094 3091 3087 3083 3079 3075 3071 3067 3063 3059 3053 3047
3123 3124 3124 3125 3125 3125 3125 3126 3127 3128 3128 3129 3129 3130 3130 3131 3131 3132 3132 3132 3133 3133 3133 3133 3133 3133 3132 3132 3131 3131 3130 3130 3129 3129 3128 3127 3126 3125 3124 3122 3120 3119 3117 3115 3113 3110 3108 3105 3102 3100 3097 3094 3091 3088 3085 3081 3076 3072 3067 3062 3058 3053 3047
3120 3121 3122 3122 3123 3123 3123 3124 3125 3126 3126 3127 3127 3128 3128 3129 3129 3130 3130 3131 3131 3131 3131 3131 3131 3131 3131 3130 3130 3130 3129 3129 3128 3128 3127 3126 3125 3124 3123 3121 3119 3118 3116 3114 3112 3109 3107 3105 3103 3100 3097 3094 3091 3088 3085 3082 3078 3073 3068 3063 3058 3054 3048
3117 3118 3119 3120 3120 3120 3121 3122 3122 3123 3124 3124 3125 3126 3127 3127 3127 3128 3128 3129 3129 3130 3130 3130 3130 3130 3129 3129 3129 3128 3128 3128 3127 3127 3126 3126 3124 3123 3122 3120 3119 3117 3115 3113 3111 3109 3107 3105 3102 3100 3097 3094 3091 3088 3085 3081 3077 3073 3068 3064 3059 3054 3049
3114 3115 3116 3117 3118 3118 3118 3119 3120 3121 3122 3122 3123 3124 3125 3125 3125 3126 3126 3127 3127 3128 3128 3128 3128 3128 3128 3128 3128 3127 3127 3127 3127 3126 3125 3124 3123 3122 3121 3119 3118 3116 3114 3112 3110 3108 3106 3104 3101 3099 3097 3094 3091 3089 3085 3082 3077 3073 3069 3065 3061 3056 3051
3111 3112 3113 3114 3115 3115 3116 3116 3117 3118 3119 3120 3121 3121 3122 3123 3123 3124 3124 3125 3126 3126 3127 3127 3127 3127 3127 3127 3126 3126 3126 3126 3126 3125 3124 3123 3122 3121 3120 3118 3117 3115 3113 3111 3109 3107 3105 3103 3101 3098 3096 3094 3091 3088 3086 3083 3079 3074 3070 3067 3062 3058 3053
3107 3108 3110 3111 3112 3112 3113 3113 3115 3116 3116 3117 3118 3119 3120 3120 3121 3122 3122 3123 3124 3125 3125 3125 3125 3125 3125 3125 3125 3125 3125 3125 3124 3124 3123 3122 3121 3120 3119 3117 3116 3114 3112 3110 3108 3106 3104 3102 3100 3097 3095 3093 3090 3087 3084 3081 3078 3075 3071 3067 3064 3060 3055
3103 3104 3106 3108 3108 3109 3110 3111 3112 3113 3114 3114 3115 3116 3117 3118 3119 3120 3120 3121 3122 3123 3124 3124 3124 3124 3124 3124 3124 3124 3124 3124 3123 3123 3122 3121 3120 3119 3117 3116 3114 3112 3111 3109 3107 3105 3103 3100 3098 3096 3093 3091 3089 3086 3083 3079 3075 3073 3070 3066 3062 3058 3054
3098 3100 3102 3104 3105 3106 3107 3108 3109 3110 3111 3112 3113 3114 3115 3116 3117 3118 3118 3119 3121 3121 3122 3122 3122 3122 3122 3123 3123 3123 3123 3123 3122 3121 3120 3119 3118 3117 3116 3115 3113 3111 3110 3108 3106 3104 3102 3099 3096 3094 3092 3090 3087 3084 3081 3078 3075 3071 3068 3065 3061 3057 3053
3097 3098 3099 3100 3101 3103 3104 3105 3106 3108 3109 3109 3111 3112 3113 3114 3115 3116 3116 3117 3119 3120 3120 3121 3121 3121 3121 3121 3121 3121 3121 3121 3121 3120 3119 3118 3117 3116 3114 3113 3112 3110 3109 3107 3105 3103 3101 3098 3096 3093 3091 3088 3086 3083 3080 3078 3075 3072 3069 3065 3061 3057 3053
3094 3095 3096 3097 3098 3100 3101 3102 3103 3105 3106 3107 3108 3109 3111 3112 3113 3113 3114 3115 3117 3118 3118 3119 3119 3119 3119 3119 3120 3120 3120 3120 3119 3119 3118 3117 3115 3114 3113 3112 3110 3109 3107 3106 3104 3102 3100 3097 3095 3093 3090 3088 3086 3083 3081 3078 3075 3072 3069 3065 3061 3057 3052
3090 3092 3093 3094 3095 3097 3098 3099 3101 3103 3104 3105 3106 3107 3108 3109 3110 3111 3112 3113 3114 3116 3116 3117 3117 3118 3118 3118 3118 3118 3118 3118 3118 3117 3116 3115 3114 3113 3112 3110 3109 3108 3106 3105 3103 3101 3099 3096 3094 3092 3090 3088 3086 3083 3081 3078 3075 3072 3069 3065 3061 3056 3051
3087 3089 3091 3092 3093 3094 3095 3097 3098 3100 3101 3102 3103 3104 3106 3107 3108 3108 3110 3111 3112 3113 3114 3115 3115 3116 3116 3116 3116 3117 3117 3117 3116 3116 3115 3114 3112 3111 3110 3109 3108 3107 3105 3103 3101 3100 3097 3095 3093 3091 3089 3087 3085 3083 3080 3078 3075 3072 3068 3065 3061 3056 3051
Wind_Speed
15 14 14 13 11 9 8 8 8 7 6 7 7 8 8 8 8 8 9 10 11 12 13 14 15 15 15 15 15 15 15 16 16 16 16 16 17 17 18 18 19 20 21 22 23 24 24 23 22 23 26 29 29 29 29 30 30 31 31 32 33 33 33
14 14 13 13 11 10 10 8 8 7 6 7 8 8 8 8 9 10 10 12 13 14 15 15 16 16 16 17 16 16 16 16 16 16 16 16 17 17 18 19 20 21 23 24 25 25 25 24 22 20 20 23 26 28 28 30 31 31 31 31 32 32 33
14 14 13 13 12 12 11 9 9 8 7 8 9 9 9 10 10 11 12 13 14 15 16 17 17 17 18 18 17 17 17 16 16 15 16 16 17 18 19 20 21 23 23 24 24 24 24 23 22 21 20 21 24 26 28 29 31 32 32 32 32 32 33
14 14 14 13 13 12 13 12 11 10 9 10 10 11 12 12 13 13 14 15 16 16 17 17 18 18 18 18 18 17 17 16 15 15 16 16 17 18 19 21 22 23 23 23 23 23 22 22 22 22 23 24 26 27 28 29 30 31 32 32 33 33 33
14 14 13 13 12 13 14 14 12 12 12 12 13 14 14 15 15 16 16 16 17 17 17 17 18 19 19 18 17 17 16 15 15 15 16 16 17 19 20 21 22 23 23 23 23 23 22 22 23 24 24 25 26 27 28 29 29 30 31 32 32 33 34
13 12 12 13 14 14 15 15 15 14 14 15 15 15 16 16 17 17 17 17 17 17 17 18 19 19 18 18 17 16 15 15 15 16 16 17 19 20 21 22 23 23 23 23 23 23 23 23 23 24 24 25 25 26 27 28 29 29 30 31 32 32 33
13 13 13 14 14 15 15 16 17 16 17 17 16 17 17 17 17 17 17 17 17 17 18 19 19 18 17 16 16 15 15 15 15 16 17 19 20 21 23 23 23 23 23 22 22 22 23 24 24 25 24 24 24 25 26 28 30 30 29 30 31 32 33
13 13 14 14 14 16 16 17 18 18 18 18 17 17 17 17 17 17 17 17 17 18 18 18 17 17 16 16 15 15 15 15 16 17 18 20 21 23 23 24 24 23 23 22 22 23 24 25 26 27 27 26 25 24 24 26 29 30 30 30 30 31 33
14 14 14 14 14 15 16 17 18 19 19 18 17 17 17 17 17 17 17 17 17 17 17 17 16 16 15 15 15 15 15 16 17 18 19 21 22 23 24 24 24 23 23 23 23 25 26 27 28 29 30 30 30 29 26 25 27 29 30 31 31 31 32
13 13 13 13 13 14 15 17 18 18 17 17 17 17 16 17 17 17 17 16 16 15 15 15 15 15 15 14 15 15 15 16 17 19 21 22 23 24 24 24 24 23 23 24 25 26 27 28 29 30 31 31 32 33 32 30 29 30 31 33 35 35 33
13 12 12 12 13 14 15 17 17 16 16 16 16 16 16 16 16 16 16 15 14 14 14 14 14 14 14 14 14 15 16 17 18 20 22 23 24 24 24 23 22 23 23 25 26 27 27 28 29 30 31 32 33 34 35 34 33 34 35 35 37 39 38
13 12 12 12 12 14 15 16 15 15 15 15 15 15 15 16 15 15 14 13 13 13 13 14 14 14 13 13 14 15 16 18 20 21 22 23 23 23 22 22 22 23 24 25 26 27 27 28 29 30 32 33 34 34 35 36 35 35 37 38 38 39 41
13 12 11 11 11 13 14 14 14 13 13 14 14 15 15 14 14 13 12 12 12 13 13 13 13 13 13 13 14 15 17 19 20 21 22 22 22 21 21 21 22 23 24 25 26 26 27 28 29 30 31 32 34 35 35 37 37 35 35 38 39 39 41
13 12 11 10 10 11 12 12 12 12 13 14 14 14 13 13 12 12 12 12 12 12 12 12 12 12 12 13 15 16 18 19 20 21 21 20 20 20 20 21 22 23 24 24 25 25 26 27 29 29 30 31 33 35 36 37 38 37 35 36 38 40 41
13 12 10 10 10 10 10 11 11 13 13 14 13 12 12 12 11 11 11 12 12 12 12 11 12 12 12 14 15 17 19 19 20 20 19 19 19 19 20 21 22 22 23 24 24 25 26 27 28 28 30 31 32 34 36 37 38 39 38 38 39 40 41
14 12 11 10 11 11 11 11 12 13 14 13 12 12 12 11 11 11 11 12 12 11 11 11 11 12 13 14 16 17 18 19 19 19 18 18 19 20 20 21 21 22 22 23 24 25 26 26 27 28 29 30 32 33 34 36 38 39 40 40 41 42 43
15 13 12 12 12 12 12 12 13 14 14 13 12 12 12 11 11 11 12 12 12 11 11 11 11 12 13 15 16 17 18 18 18 17 17 18 19 19 20 20 21 21 22 22 23 24 25 26 27 28 29 30 31 32 34 36 37 39 41 42 42 43 45
15 14 13 13 13 13 13 13 14 14 14 13 12 12 12 11 12 12 12 12 11 11 10 11 11 12 13 15 16 17 17 17 17 16 17 17 18 19 19 19 20 20 21 22 23 24 25 26 27 27 28 29 31 32 34 36 37 39 41 43 44 44 45
15 13 13 13 13 14 14 14 14 15 14 14 13 12 12 12 12 12 12 11 11 10 10 10 11 12 14 15 16 17 17 16 15 16 16 17 17 18 18 19 19 20 21 22 22 23 24 25 27 27 28 29 31 33 35 36 38 39 41 43 44 45 45
14 13 13 13 14 14 14 14 15 15 15 14 14 13 13 13 13 12 12 11 10 10 10 11 12 13 13 14 15 16 15 15 15 15 16 16 17 17 17 18 19 20 21 22 22 23 24 24 26 27 28 30 32 34 36 37 39 40 41 43 45 46 47
14 13 13 13 14 14 14 14 16 16 15 15 14 14 14 13 13 12 11 10 10 10 10 11 12 13 13 14 15 14 14 14 14 14 15 15 16 16 17 17 18 19 20 21 22 23 24 24 25 27 29 31 34 35 37 38 40 41 42 43 45 46 48
15 14 14 14 14 14 15 16 17 17 16 15 15 15 14 13 13 12 11 10 10 10 10 11 12 12 13 13 13 13 13 13 13 13 14 14 15 15 16 17 18 19 20 21 22 23 24 25 26 29 31 33 35 36 37 39 41 42 43 44 46 48 49
16 15 14 13 14 15 16 17 18 18 17 16 16 15 14 13 13 12 11 10 10 10 11 11 11 12 12 13 12 12 12 12 12 13 13 13 14 14 15 16 17 18 19 20 21 22 23 25 27 29 32 34 35 37 38 40 41 42 43 45 47 49 51
17 16 15 14 15 16 16 18 19 18 17 17 16 15 14 13 13 12 11 10 10 11 11 11 11 12 12 12 12 12 11 11 11 12 12 12 13 13 14 15 16 17 18 18 20 22 23 25 27 29 31 33 35 37 39 40 41 42 44 45 47 49 52
18 17 16 15 15 16 18 19 20 19 18 18 16 15 14 14 13 12 11 11 10 11 11 10 11 11 11 11 11 11 10 10 11 11 11 12 12 12 13 14 15 16 17 18 19 21 23 25 26 28 30 31 33 35 37 39 41 43 44 46 47 49 51
19 18 16 15 16 17 18 20 21 20 19 18 17 15 15 14 14 13 12 11 11 11 10 10 11 11 10 10 10 9 9 10 10 10 10 10 11 12 13 13 14 15 16 18 20 21 23 24 25 27 28 30 31 33 34 36 38 41 43 45 47 48 50
20 19 17 16 16 17 19 21 22 20 19 18 17 16 16 15 14 13 12 11 11 11 10 10 10 10 10 9 9 9 9 8 9 9 9 9 10 11 12 13 14 15 16 18 20 22 23 23 25 26 27 29 30 32 34 35 36 39 42 44 46 48 49
21 20 18 17 17 17 19 21 22 21 20 19 18 17 17 16 15 14 13 12 11 10 10 10 10 9 9 8 8 8 8 7 8 8 8 8 9 10 11 12 14 15 17 18 20 22 23 24 25 26 27 28 29 31 33 35 36 39 41 43 45 46 47
22 21 19 18 17 18 19 22 23 22 20 19 18 17 17 16 15 14 13 12 12 11 11 11 10 9 8 7 7 7 7 6 6 6 6 7 9 10 11 12 13 15 17 19 20 22 23 24 25 26 27 28 29 30 32 33 35 38 39 41 43 44 45
24 23 20 18 17 18 20 22 23 23 21 19 18 18 17 16 15 14 14 13 12 12 12 11 10 9 7 6 6 6 5 5 5 5 5 7 8 10 11 12 13 15 17 19 20 22 23 24 25 26 27 28 29 30 31 32 34 36 37 39 40 42 43
26 25 21 18 17 19 20 22 24 23 22 20 19 19 18 17 16 15 14 14 13 12 12 11 9 8 7 6 6 5 5 5 5 5 5 6 8 9 11 12 13 15 17 19 20 21 23 24 25 27 27 29 30 31 32 33 34 35 37 38 39 40 42
29 27 22 18 18 19 21 23 25 24 22 21 20 19 19 18 17 16 15 14 13 13 12 11 10 8 7 6 6 5 5 5 5 5 5 6 8 9 11 12 13 15 17 18 20 21 23 24 26 27 28 30 31 32 34 36 37 37 38 39 40 41 42
28 24 21 20 18 19 21 24 26 25 23 21 20 20 20 19 18 17 16 14 13 13 13 11 10 9 8 7 6 5 5 6 6 5 5 6 7 9 11 12 14 15 16 18 20 21 23 24 26 28 29 30 32 33 35 36 37 38 39 39 40 42 43
26 21 21 21 19 19 22 25 26 25 24 22 21 20 20 20 19 17 16 14 14 14 13 12 10 9 8 7 7 6 6 6 6 6 6 6 7 9 11 13 14 15 16 18 19 21 22 24 26 27 29 30 32 33 34 35 36 37 38 38 39 41 42
27 24 24 24 21 21 23 25 27 26 24 23 21 21 21 20 19 17 16 15 14 14 14 12 11 10 9 8 7 7 7 6 6 6 7 7 8 9 11 13 14 15 16 17 19 20 22 24 25 27 28 29 30 32 33 34 35 35 36 37 38 40 42
31 28 28 26 23 21 23 25 27 27 25 23 22 22 22 21 20 18 16 15 15 15 14 13 12 11 10 9 8 7 7 7 7 7 8 7 8 9 11 13 14 15 16 17 19 20 22 23 25 26 27 28 29 30 31 32 33 34 35 36 38 39 42
33 26 24 25 23 21 22 25 27 27 26 24 23 23 22 22 20 19 17 16 16 16 15 14 13 12 11 9 9 8 8 7 7 8 8 8 8 9 11 12 14 15 16 17 19 20 22 23 25 26 27 28 29 30 30 31 32 33 34 35 37 39 41
Wind_Direction
204 209 210 207 205 208 219 238 264 284 290 290 290 288 289 292 296 302 306 309 310 310 310 310 310 308 307 305 304 303 304 305 305 304 301 300 301 304 306 308 309 310 311 312 312 313 314 315 315 316 315 314 315 316 316 316 315 315 315 314 314 313 312
207 211 211 208 210 215 226 248 271 281 288 295 298 298 297 298 300 303 306 307 308 307 307 307 307 307 305 304 303 304 305 305 304 302 301 303 305 307 309 310 311 312 313 314 315 315 315 315 315 313 311 311 313 315 316 317 317 316 316 315 315 315 314
212 213 212 211 215 220 229 253 275 280 286 295 298 298 298 299 301 303 304 304 304 303 304 305 305 304 302 302 303 304 304 303 303 303 305 307 309 311 312 313 314 315 316 317 317 316 316 317 318 318 317 316 317 318 318 318 317 316 317 317 318 318 317
214 212 214 217 220 224 233 251 271 280 284 288 290 293 295 297 300 301 301 300 300 302 303 304 302 301 301 301 303 303 302 302 304 306 309 311 312 313 313 314 315 316 316 316 315 316 317 319 321 323 324 324 324 322 320 319 318 318 319 319 320 320 319
216 215 217 220 223 230 239 250 263 276 284 287 289 290 293 296 298 298 298 298 300 302 302 301 300 300 301 302 301 300 300 303 306 309 311 312 313 314 315 315 315 315 316 316 318 319 321 323 325 326 327 326 324 322 321 321 323 323 323 323 323 323 322
217 220 219 220 227 239 246 249 256 272 285 289 290 290 292 294 295 295 296 298 299 300 300 299 299 300 300 299 298 299 302 307 310 312 313 314 315 316 315 315 316 318 319 321 323 324 325 326 328 328 326 325 325 326 326 326 326 327 327 326 325 324 324
216 222 223 226 236 247 251 250 256 271 285 288 288 288 289 289 290 292 295 298 299 299 299 298 298 299 299 298 300 304 309 312 314 315 317 317 317 317 317 318 320 322 324 325 327 327 327 328 327 326 326 327 329 331 332 330 328 328 328 328 327 325 325
219 224 229 235 243 251 254 253 258 271 281 284 284 284 284 285 288 292 295 297 298 298 297 297 298 299 300 301 305 310 313 315 317 318 319 319 318 319 320 323 324 326 327 328 328 329 329 329 329 328 329 331 332 334 335 333 330 329 329 329 329 328 326
224 228 233 240 248 253 255 256 261 270 277 280 280 281 282 286 290 293 295 295 295 295 296 298 300 300 302 305 309 313 315 317 319 320 320 320 321 323 324 325 327 328 329 330 331 333 332 332 332 333 334 335 335 335 337 338 334 332 331 330 329 330 330
225 230 235 243 250 254 256 259 264 271 276 278 279 281 284 288 291 292 292 292 293 296 298 299 300 300 303 308 311 314 316 318 321 321 321 323 325 326 326 327 328 330 332 334 335 335 335 335 337 337 337 336 336 336 337 340 340 337 336 334 331 332 333
224 230 238 245 251 257 262 266 270 275 277 278 279 283 286 288 289 289 289 292 296 299 299 298 299 301 305 310 313 315 317 319 321 323 325 326 326 327 327 329 331 333 335 336 336 336 338 339 339 339 338 337 338 338 337 340 343 341 338 338 336 333 334
226 234 241 248 256 264 269 272 276 278 278 280 282 284 285 286 287 288 291 296 299 298 297 297 299 303 308 312 315 316 318 321 323 325 326 327 327 328 329 331 334 337 337 337 338 340 340 340 340 340 340 339 338 339 339 339 342 343 340 338 338 336 334
231 236 241 250 262 269 272 274 275 278 282 283 283 283 284 285 288 291 295 298 297 295 296 297 300 305 311 315 316 317 320 323 325 326 326 327 328 330 332 335 337 338 338 339 341 341 341 341 341 341 341 340 339 340 340 339 340 343 343 339 338 338 336
230 232 237 250 264 269 272 274 276 281 283 283 282 282 285 287 290 293 294 293 292 293 295 297 301 308 313 314 316 318 321 323 324 325 327 329 331 333 336 338 338 338 339 341 342 341 341 342 342 341 341 341 341 340 339 339 339 341 344 342 340 339 338
226 227 235 251 265 273 277 279 280 282 281 280 282 284 286 287 288 289 287 287 288 291 294 299 305 309 312 314 315 318 320 322 325 327 329 331 333 336 338 339 339 340 341 342 341 341 342 342 342 342 342 342 342 341 340 340 340 341 343 344 342 341 340
221 226 239 256 270 277 280 282 281 280 278 280 283 283 283 283 282 282 282 283 287 291 296 302 305 307 310 313 315 317 320 324 327 329 331 333 336 338 339 339 340 341 342 342 342 342 342 343 342 342 343 343 342 342 342 342 343 343 344 345 344 343 342
222 232 248 263 272 276 278 279 277 276 277 280 280 279 278 277 277 277 278 282 286 291 296 299 300 304 308 312 315 318 323 327 329 330 332 335 338 339 339 340 340 341 342 342 342 343 343 342 343 343 343 342 342 344 345 346 347 346 345 345 346 346 344
228 243 257 266 271 273 274 274 273 273 276 277 275 274 273 272 272 272 275 280 284 289 292 293 296 301 308 313 316 320 325 328 329 331 334 337 338 339 339 340 341 341 342 342 343 343 343 341 342 343 342 342 344 346 348 349 349 349 348 347 346 347 346
235 249 259 265 270 272 272 271 270 271 272 272 270 269 267 265 265 267 271 276 280 284 286 288 295 302 310 316 319 322 326 328 329 332 335 338 338 339 340 341 342 342 342 343 343 342 342 342 342 341 342 344 347 349 350 351 351 351 350 348 347 347 347
240 247 254 262 268 271 271 269 267 267 266 265 264 262 260 259 260 263 268 272 276 278 281 287 297 305 312 317 320 323 325 326 329 333 336 338 339 340 342 342 343 343 343 343 342 342 342 342 342 342 344 348 350 351 352 352 353 353 351 350 348 347 348
237 242 250 259 266 270 269 266 263 262 261 259 257 255 255 255 258 261 265 268 272 274 280 290 299 306 313 318 320 321 322 325 330 334 336 338 339 341 344 344 344 344 343 343 342 342 343 343 344 346 349 351 352 353 354 353 354 354 352 351 349 348 349
234 241 249 256 262 265 264 261 259 257 255 253 252 251 251 253 256 260 262 264 267 273 282 292 299 308 314 318 318 318 320 326 331 334 336 338 341 344 345 346 346 345 345 344 345 345 345 346 348 351 352 353 353 353 355 355 354 353 353 352 350 350 351
233 241 248 254 260 260 258 256 254 253 251 249 248 248 249 252 255 256 258 261 265 273 283 292 300 309 313 315 315 315 320 327 331 334 336 339 343 346 347 349 349 348 347 347 348 348 349 352 354 355 354 354 354 354 355 355 354 353 353 353 353 352 352
235 243 249 255 258 257 255 253 251 250 248 246 245 246 248 251 252 253 255 257 263 273 283 291 300 308 310 310 311 314 321 328 330 333 338 342 345 348 351 353 353 352 351 352 353 353 355 357 358 357 356 356 355 354 354 354 353 353 354 355 355 353 352
237 244 250 256 257 254 251 249 247 246 245 244 244 244 246 248 249 250 251 254 263 273 281 290 299 304 306 305 309 314 322 326 329 335 341 344 348 352 356 358 357 357 358 358 0 1 1 0 360 359 358 357 357 356 355 354 353 353 354 355 356 355 354
238 243 248 256 258 253 248 245 244 243 242 243 243 244 246 246 246 247 248 253 264 272 279 289 295 298 300 302 307 315 321 324 330 339 343 345 352 358 0 2 2 4 5 6 7 7 6 4 2 0 359 358 358 357 356 355 354 354 355 356 357 356 355
238 241 247 256 260 254 246 243 242 240 239 240 242 243 243 244 243 243 245 252 262 268 275 285 289 291 294 299 305 312 317 323 333 340 342 348 357 2 4 4 6 8 10 11 12 11 9 6 4 2 0 360 359 357 356 356 356 356 357 357 357 357 356
237 240 246 255 261 257 248 243 241 239 237 238 241 243 243 243 241 240 245 253 258 263 270 278 281 283 288 295 301 308 313 323 333 336 340 352 1 4 5 6 8 10 11 12 13 12 10 9 6 4 2 1 0 358 357 357 357 358 359 359 358 357 357
235 239 245 252 259 259 252 244 241 239 237 237 240 242 241 241 239 238 245 251 252 257 266 270 272 276 281 287 294 300 308 319 327 329 339 357 3 3 4 6 9 11 11 12 12 10 9 9 8 6 4 2 1 1 359 358 359 360 360 360 359 358 357
233 236 238 244 255 259 253 245 240 238 237 236 237 239 238 236 235 238 244 246 247 254 262 263 265 270 274 278 284 289 300 311 315 321 340 358 2 360 1 4 7 10 11 10 9 8 7 7 7 6 4 2 1 1 360 0 2 2 1 0 360 359 358
233 235 234 239 250 256 252 244 239 237 234 233 234 236 235 232 232 237 241 242 245 252 258 258 260 263 264 268 272 277 288 297 299 311 338 354 359 358 358 1 5 9 9 7 5 4 4 4 5 4 3 2 1 360 359 1 3 3 1 1 360 360 359
233 232 230 235 244 251 249 242 238 236 234 232 233 234 233 231 231 235 237 238 244 251 254 254 255 255 255 257 260 266 275 280 287 305 332 347 354 355 354 356 2 6 6 4 2 1 0 1 2 1 1 1 360 359 359 0 1 1 1 0 359 360 0
244 235 225 230 239 247 248 241 237 236 234 231 231 232 232 232 232 234 235 236 244 251 251 250 250 247 246 247 249 256 265 270 282 301 322 338 348 351 350 353 359 3 3 1 359 358 358 359 359 359 359 358 358 358 359 360 359 359 360 359 359 359 0
256 243 223 225 234 243 246 240 236 236 234 230 230 229 230 232 233 232 232 235 243 249 247 246 245 240 237 238 241 249 259 268 283 299 313 330 343 347 348 350 355 358 359 359 358 356 356 357 357 357 357 356 356 357 357 357 357 357 357 358 358 358 360
251 240 223 223 231 238 241 237 235 236 234 229 228 227 227 231 232 229 229 234 240 244 244 242 240 237 233 232 236 245 256 268 284 296 306 323 339 345 347 348 351 353 356 356 356 355 355 356 356 356 355 354 354 354 354 354 354 354 355 356 357 357 359
246 239 225 223 229 233 235 236 235 236 235 231 228 226 226 230 229 225 226 232 237 239 239 237 234 232 230 230 234 243 255 268 282 293 302 319 336 343 345 346 347 350 353 355 354 354 355 355 355 354 353 352 352 351 352 351 351 351 352 354 355 357 359
253 247 228 223 229 230 232 235 236 235 233 230 227 225 227 229 227 224 224 229 233 235 235 232 229 226 226 229 235 243 254 266 279 289 300 315 331 340 343 345 345 347 351 353 353 354 354 354 354 353 351 350 350 349 349 349 348 349 351 351 353 356 359